Regional Weather Roundup
Issued by NWS Upton, NY

Current Version | Previous Version | Graphics & Text | Print | Product List | Glossary Off
Versions: 1 2 3 4 5 6 7 8 9 10 11 12 13 14 15 16 17 18 19 20 21 22 23 24 25 26 27 28 29 30 31 32 33 34 35 36 37 38 39 40 41 42 43 44 45 46 47 48 49 50

000
ASUS41 KOKX 040405
RWROKX

REGIONAL WEATHER ROUNDUP
NATIONAL WEATHER SERVICE NEW YORK NY
1100 PM EST TUE MAR 03 2015

NOTE: "FAIR" INDICATES FEW OR NO CLOUDS BELOW 12,000 FEET WITH NO
SIGNIFICANT WEATHER AND/OR OBSTRUCTIONS TO VISIBILITY.

NYZ071-072-176-178-NJZ106-104-040500-
NEW YORK CITY METRO AREA


CITY           SKY/WX    TMP DP  RH WIND       PRES   REMARKS
CENTRAL PARK   MIX PCPN  36  32  85 VRB7G24   29.91F WCI  30
LAGUARDIA APRT LGT RAIN  36  32  85 SW12G21   29.90F WCI  28
KENNEDY INTL   RAIN      35  32  88 SW8       29.92F WCI  29
NEWARK/LIBERTY LGT RAIN  34  32  92 S7        29.90F FOG     WCI  28
BRNX BOT. GARD   N/A     34  34 100 S9        29.91F WCI  26
TETERBORO      RAIN      35  32  88 S10       29.88F WCI  27
$$

NYZ177-179-078>081-040500-
LONG ISLAND NEW YORK

CITY           SKY/WX    TMP DP  RH WIND       PRES   REMARKS
FARMINGDALE    RAIN      35  34  96 SW7       29.89F FOG     WCI  29
ISLIP          RAIN      34  32  92 SW5       29.88F FOG     WCI  30
SHIRLEY        RAIN      34  33  96 SW3       29.91F FOG
WESTHAMPTON    RAIN      35  33  92 CALM      29.92F FOG
MONTAUK POINT    N/A     38  36  92 S6        29.92F WCI  33
$$

NYZ052-065-067-040500-
HUDSON VALLEY

CITY           SKY/WX    TMP DP  RH WIND       PRES   REMARKS
WHITE PLAINS   LGT RAIN  33  32  96 S7        29.86F FOG     WCI  27
NEWBURGH       FRZ RAIN  34  30  86 W12       29.84  WCI  25
MONTGOMERY     CLOUDY    33  29  85 CALM      29.82F
POUGHKEEPSIE   CLOUDY    34  30  85 VRB3      29.85F
ALBANY         FRZ DRZL  28  22  78 S18G29    29.74F WCI  15
$$

NJZ001-105-106-008-010-013-015-019>022-104-040500-
NEW JERSEY

CITY           SKY/WX    TMP DP  RH WIND       PRES   REMARKS
NEWARK/LIBERTY LGT RAIN  34  32  92 S7        29.90F FOG     WCI  28
TETERBORO      RAIN      35  32  88 S10       29.88F WCI  27
CALDWELL       LGT RAIN  33  30  88 SW6       29.87F WCI  28
MORRISTOWN     MIX PCPN  36  32  87 S5        29.87F WCI  32
SOMERVILLE     LGT RAIN  33  31  92 CALM      29.87F FOG
SUSSEX         CLOUDY    33  28  81 MISG      29.81F
ANDOVER          N/A     32  29  88 S10G18    29.79F WCI  24
TRENTON        FRZ RAIN  33  30  88 MISG      29.89F
MILLVILLE      CLOUDY    33  31  92 VRB7      29.91F FOG     WCI  27
ATLANTIC CITY  LGT RAIN  35  33  92 SW14G22   29.91F FOG     WCI  26
WRIGHTSTOWN    LGT RAIN  33  33  99 W12       29.87F WCI  25
TOMS RIVER     CLOUDY    34  34 100 CALM      29.90F
BELMAR         CLOUDY    34  28  80 CALM      29.90F
$$

PAZ047>061-062-071-040500-
EASTERN PENNSYLVANIA

CITY           SKY/WX    TMP DP  RH WIND       PRES   REMARKS
PHILADELPHIA   LGT RAIN  33  31  92 SW13      29.93F WCI  24
ALLENTOWN      FRZ RAIN  33  29  85 SW7       29.86F WCI  27
SCRANTON       CLOUDY    30  25  81 SW5       29.78S WCI  25
$$

CTZ002-004>006-009-010-012-RIZ004-006-007-MAZ004-011-015-040500-
SOUTHERN NEW ENGLAND
 IN CT

CITY           SKY/WX    TMP DP  RH WIND       PRES   REMARKS
BRADLEY INTL   LGT RAIN  33  29  85 S14       29.85F FOG     WCI  23
HARTFORD       LGT RAIN  33  31  92 S13G18    29.87F FOG     WCI  24
DANBURY        LGT RAIN  34  29  82 S13G25    29.85F WCI  25
WTRBRY/OXFORD  CLOUDY    34  27  75 S10G20    29.85F WCI  26
BRIDGEPORT     FRZ RAIN  32  32 100 S8        29.90F FOG     WCI  25
MERIDEN        FRZ RAIN  33  31  92 S8        29.88F FOG     WCI  26
NEW HAVEN      FRZ RAIN  32  31  96 S7        29.90F FOG     WCI  26
CHESTER        MIX PCPN  34  32  93 SW9       29.90F WCI  26
GROTON         MIX PCPN  32  32 100 S8        29.90F FOG     WCI  25
WILLIMANTIC    FRZ RAIN  34  31  88 S7        29.87F FOG     WCI  28

 IN RI

CITY           SKY/WX    TMP DP  RH WIND       PRES   REMARKS
PROVIDENCE     FLURRIES  33  31  92 S13       29.89F WCI  24
BLOCK ISLAND   CLOUDY    37  34  87 S12       29.91F WCI  30
WESTERLY       RAIN      34  33  96 S8        29.91F FOG     WCI  27

 IN MA

CITY           SKY/WX    TMP DP  RH WIND       PRES   REMARKS
BOSTON         FRZ RAIN  29  28  96 S5        29.88F VSB 1   WCI  24
WORCESTER      FRZ RAIN  27  24  89 S15       29.80F FOG     WCI  15
WESTFIELD      FRZ RAIN  26  23  88 S3        29.84F
PROVINCETOWN   CLOUDY    30  28  93 S16G24    29.90F WCI  19
NANTUCKET      MIX PCPN  34  32  92 S16       29.97F WCI  24
$$

ANZ330-335-338-340-345-350-353-355-040500-
COASTAL MARINE OBSERVATIONS


STATION/POSITION TIME  SKY/WX   TEMP    WIND        PRES    VSBY  WAVE
                                AIR SEA DIR/SP/G                  HT/PER
                 (UTC)          (F)     (DEG/KT/KT) (MB)    (MI)  (FT/S)
NY HARB ENTRANCE 0400            36 38  250/ 10/ 12 1012.8          2/ 4
4S FIRE IS       0300               32                N/A           3/ 5
20S FIRE ISLAND  0300               36              1014.8          3/ 5
23SW MTP         0400                                 N/A           4/ 5
HUDSON CANYON    NOT AVBL
EXECUTION ROCKS  NOT AVBL
WESTERN LI SOUND NOT AVBL
CENTRAL LI SOUND NOT AVBL
EASTERN LI SOUND NOT AVBL
ROBBINS REEF     0400            33     180/  7/  9 1011.7
$$


>>>>>>>>>>>>>>>>>>>>>>>>>>>> KEY <<<<<<<<<<<<<<<<<<<<<<<<<<<
>                                                          <
>     SKY/WX - SKY CONDITION/PRESENT WEATHER               <
>     TMP    - TEMPERATURE IN FAHRENHEIT                   <
>     DP     - DEWPOINT IN FAHRENHEIT                      <
>     RH     - RELATIVE HUMIDITY IN PERCENT                <
>     WIND   - DIRECTION AND SPEED IN MPH                  <
>     PRES   - MEAN SEA LEVEL PRESSURE IN INCHES OF HG     <
>     WCI    - WIND CHILL INDEX                            <
>     VSB    - VISIBILITY IN MILES                         <
>     HX     - HEAT INDEX                                  <
>     TC     - TEMPERATURE IN CELSIUS                      <
>     VRB    - VARIABLE WIND DIRECTION                     <
>                                                          <
>>>>>>>>>>>>>>>>>>>>>>>>>>>> KEY <<<<<<<<<<<<<<<<<<<<<<<<<<<




USA.gov is the U.S. government's official web portal to all federal, state and local government web resources and services.